カタログに戻る

COSMOS 970 DEB

運用中LEO
NORAD 12862·DEBRIS·🇷🇺 Russia

打ち上げ Dec 21, 1977 から Baikonur Cosmodrome

Loading…

次のパス (今後24時間)

TLE

最新Source: Space-Track

元期: Sep 14, 2026, 07:57 UTC

1 12862U 77121AQ  26257.33179817  .00001004  00000-0  52922-3 0  9996
2 12862  66.2160 223.0060 0128453 142.2089   7.1091 14.13996328363459

AllMySatでCOSMOS 970 DEBをリアルタイム追跡

Download on the App Store